Regional Weather Roundup
Issued by NWS

Home | Current Version | Previous Version | Text Only | Print | Product List | Glossary On
Versions: 1 2 3 4 5 6 7 8 9 10 11 12 13 14 15 16 17 18 19 20 21 22 23 24 25 26 27 28 29 30 31 32 33 34 35 36 37 38 39 40 41 42 43 44 45 46 47 48 49 50
000
ASUS43 KMKX 191800
RWRWI

WISCONSIN REGIONAL WEATHER ROUNDUP
NATIONAL WEATHER SERVICE MILWAUKEE/SULLIVAN WI
100 PM CDT FRI SEP 19 2014

NOTE: "FAIR" INDICATES FEW OR NO CLOUDS BELOW 12,000 FEET WITH NO
SIGNIFICANT WEATHER AND/OR OBSTRUCTIONS TO VISIBILITY.

WIZ001-002-006>008-014>016-023>028-191900-
NORTHWEST WISCONSIN

CITY           SKY/WX    TMP DP  RH WIND       PRES   REMARKS
SUPERIOR ARPT  CLOUDY    65  56  72 SW12G22   29.73S
ASHLAND        CLOUDY    69  55  60 S17G26    29.73F
6HR MIN TEMP:  56; 6HR MAX TEMP:  69;

HAYWARD        CLOUDY    67  55  65 S21G31    29.78F
6HR MIN TEMP:  57; 6HR MAX TEMP:  67;

SIREN          PTSUNNY   68  56  65 SW17G25   29.75F
RICE LAKE      CLOUDY    66  55  67 S17G26    29.82F
6HR MIN TEMP:  51; 6HR MAX TEMP:  66;

LADYSMITH      PTSUNNY   65  55  68 S20       29.84F
EAU CLAIRE     PTSUNNY   69  55  60 S18G36    29.83F
6HR MIN TEMP:  54; 6HR MAX TEMP:  71;

MENOMONIE      CLOUDY    68  55  62 S17G25    29.83F
NEW RICHMOND   PTSUNNY   69  55  61 S20G32    29.78F
OSCEOLA        PTSUNNY   71  58  63 S21G26    29.79S
$$

WIZ003>005-009-010-017-018-191900-
NORTH CENTRAL WISCONSIN

CITY           SKY/WX    TMP DP  RH WIND       PRES   REMARKS
WOODRUFF       CLOUDY    63  51  63 S20G28    29.89F
RHINELANDER    CLOUDY    64  50  60 S14G26    29.92F
6HR MIN TEMP:  49; 6HR MAX TEMP:  64;

EAGLE RIVER    CLOUDY    62  47  58 S14G21    29.90F
LAND O LAKES   CLOUDY    62  48  60 SW12G21   29.89F
PHILLIPS       PTSUNNY   63  52  68 S15G26    29.85F
TOMAHAWK       PTSUNNY   64  51  64 S8        29.93F
MEDFORD        MOSUNNY   66  52  60 S17G32    29.91F
MERRILL        PTSUNNY   64  53  67 S7        29.94F
$$

WIZ029-030-035-036-043>047-191900-
CENTRAL WISCONSIN

CITY           SKY/WX    TMP DP  RH WIND       PRES   REMARKS
WAUSAU         PTSUNNY   67  51  56 S21G31    29.93F
6HR MIN TEMP:  50; 6HR MAX TEMP:  67;

MOSINEE        SUNNY     66  54  63 S20G26    29.96F
MARSHFIELD     MOSUNNY   70  54  56 S22G30    29.92F
6HR MIN TEMP:  51; 6HR MAX TEMP:  70;

STEVENS POINT  MOSUNNY   68  50  52 S21       29.97F
WAUPACA        MOSUNNY   72  53  51 S16G22    30.00F
WAUTOMA        NOT AVBL
WISC RAPIDS    MOSUNNY   71  51  49 S12G29    29.96F
6HR MIN TEMP:  50; 6HR MAX TEMP:  72;

CAMP DOUGLAS   NOT AVBL
$$

WIZ011>013-019>022-031-037>040-048>050-191900-
NORTHEAST WISCONSIN

CITY           SKY/WX    TMP DP  RH WIND       PRES   REMARKS
ANTIGO         PTSUNNY   63  52  67 S15G22    29.97F
STURGEON BAY   MOSUNNY   64  57  77 S21G30    30.02F
6HR MIN TEMP:  55; 6HR MAX TEMP:  64;

GREEN BAY      MOSUNNY   70  52  52 S18G28    30.01F
6HR MIN TEMP:  52; 6HR MAX TEMP:  70;

MANITOWOC      NOT AVBL
APPLETON       MOSUNNY   70  48  46 SW20G28   30.02F
CLINTONVILLE   PTSUNNY   70  52  52 S17G25    29.98F
OSHKOSH        MOSUNNY   72  54  53 S20       30.01F
6HR MIN TEMP:  54; 6HR MAX TEMP:  72;

$$

WIZ032>034-041-042-053>061-191900-
SOUTHWEST WISCONSIN

CITY           SKY/WX    TMP DP  RH WIND       PRES   REMARKS
LA CROSSE      MOSUNNY   72  55  55 S23G31    29.91F
6HR MIN TEMP:  56; 6HR MAX TEMP:  73;

SPARTA         MOSUNNY   70  52  53 S10G21    29.95F
VIROQUA        FAIR      69  54  57 S16G23    29.97F
BOSCOBEL       SUNNY     74  53  48 S17G24    29.99F
6HR MIN TEMP:  51; 6HR MAX TEMP:  74;

PRAIRIE DU CHI SUNNY     71  53  52 S12G21    29.98F
PLATTEVILLE    FAIR      70  56  59 S17       30.04F
$$

WIZ056-057-062-063-064-067-068-191900-
SOUTH CENTRAL WISCONSIN

CITY           SKY/WX    TMP DP  RH WIND       PRES   REMARKS
BARABOO/DELLS  SUNNY     70  51  49 SW21G28   30.00F
LONE ROCK      NOT AVBL
WATERTOWN      SUNNY     71  51  50 S16G24    30.06F
MADISON        MOSUNNY   71  51  49 S17G25    30.03F
6HR MIN TEMP:  56; 6HR MAX TEMP:  72;

MIDDLETON      FAIR      72  50  46 S17G24    30.05F
MONROE         SUNNY     70  52  52 S20G25    30.07S
JANESVILLE     SUNNY     72  52  49 S14G20    30.09S
$$

WIZ051-052-058>065-066-070>072-191900-
SOUTHEAST WISCONSIN

CITY           SKY/WX    TMP DP  RH WIND       PRES   REMARKS
MILWAUKEE      MOSUNNY   72  50  45 S16       30.08F
6HR MIN TEMP:  56; 6HR MAX TEMP:  72;

WAUKESHA       SUNNY     70  48  46 S15       30.09F
MILWAUKEE/TIMM SUNNY     72  46  40 S20G25    30.08F
RACINE         SUNNY     69  54  58 S14       30.11F
6HR MIN TEMP:  58; 6HR MAX TEMP:  69;

BURLINGTON     SUNNY     70  48  45 S15G24    30.09F
KENOSHA        SUNNY     72  51  47 S18G25    30.10F
6HR MIN TEMP:  50; 6HR MAX TEMP:  72;

FOND DU LAC    MOSUNNY   71  51  49 S17G29    30.03F
6HR MIN TEMP:  52; 6HR MAX TEMP:  72;

SHEBOYGAN      SUNNY     70  56  61 S14       30.06F
6HR MIN TEMP:  46; 6HR MAX TEMP:  70;

WEST BEND      MOSUNNY   70  50  49 S15G23    30.07F
JUNEAU         SUNNY     70  51  50 S21G26    30.06F
$$

LSZ147-162-191900-
LAKE SUPERIOR

STATION/POSITION TIME  TEMP    WIND        PRES    WAVE
                       AIR SEA DIR/SP/G            HT/PER
                 (UTC) (F)     (DEG/KT/KT) (MB)    (FT/S)
W MID LAKE BUOY  1650   53 48  180/ 12/ 14 1008.6F   3/ 5
DEVILS ISLAND    1700   61     170/ 13/ 20 1005.9F
PORT WING        1700   65     180/ 18/ 25 1004.1F
SAXON HARBOR     1740   67     180/ 14/ 24 1004.4F
$$

LMZ867-665-643>646-191900-
LAKE MICHIGAN

STATION/POSITION TIME  TEMP    WIND        PRES    WAVE
                       AIR SEA DIR/SP/G            HT/PER
                 (UTC) (F)     (DEG/KT/KT) (MB)    (FT/S)
N MID LAKE BUOY  1650   57 58  200/ 21/ 25 1018.4F   5/ 6
NORTHPORT PIER   1700   60     150/ 12/ 20 1017.6F
SISTER BAY       1712   65     200/ 22/ 27   N/A
KEWAUNEE LAKESHO 1700   57     180/ 15/ 19 1017.5F
SHEBOYGAN LAKESH 1700   59 51  180/ 19/ 21 1019.2F
PORT WASHINGTON  1700   65     200/  6/ 11 1019.6F
ATWATER BUOY     1700   60     160/ 14/ 17 1020.1F
MILWAUKEE LAKESH 1700   65     190/ 12/ 15   N/A
S MID LAKE BUOY  1650   62 65  170/ 19/ 21 1020.3F   4/ 5
KENOSHA   LAKESH 1700   61     160/ 15/ 18 1019.6S
$$

TC  - TEMPERATURE IN CELSIUS
VSB - VISIBILITY IN STATUTE MILES
WCI - WIND CHILL INDEX
HX  - HEAT INDEX




USA.gov is the U.S. government's official web portal to all federal, state and local government web resources and services.